Regional Weather Roundup
Issued by NWS

Home | Current Version | Previous Version | Text Only | Print | Product List | Glossary Off
Versions: 1 2 3 4 5 6 7 8 9 10 11 12 13 14 15 16 17 18 19 20 21 22 23 24 25 26 27 28 29 30 31 32 33 34 35 36 37 38 39 40 41 42 43 44 45 46 47 48 49 50

000
ASUS43 KFSD 201410
RWRSD

WEATHER ROUNDUP FOR SOUTH DAKOTA
NATIONAL WEATHER SERVICE SIOUX FALLS SD
800 AM CST SAT DEC 20 2014

NOTE: "FAIR" INDICATES FEW OR NO CLOUDS BELOW 12,000 FEET WITH NO
SIGNIFICANT WEATHER AND/OR OBSTRUCTIONS TO VISIBILITY.


SDZ001>005-009-010-012>017-201500-
NORTHWEST AND NORTH CENTRAL SOUTH DAKOTA

CITY           SKY/WX    TMP DP  RH WIND       PRES   REMARKS
BUFFALO          N/A     36  26  67 W8        29.79F
FAITH            N/A     28  23  81 S7        29.89F WCI  21
MOBRIDGE       PTCLDY    20  17  88 SE9       29.90S WCI   9
$$

SDZ012>016-024>037-041>051-057-063-072>074-201500-
SOUTHWEST AND SOUTH CENTRAL SOUTH DAKOTA

CITY           SKY/WX    TMP DP  RH WIND       PRES   REMARKS
RAPID CTY ARPT CLOUDY    36  23  59 NW8       29.90R
PIERRE         FOG       19  15  84 E7        29.95F VSB 1/4 WCI  10
CUSTER         CLOUDY    35  19  52 N5        29.91R
ELLSWORTH AFB  CLOUDY    34  21  58 N2        29.90R
PHILIP         PTCLDY    18  15  88 SW3       29.94R
PINE RIDGE     CLOUDY    22  17  81 CALM      29.93R
SPEARFISH      CLOUDY    37  25  60 MISG      29.91S
WINNER         FAIR      23  15  71 S3        29.96F
$$

SDZ004>011-016>023-039-040-201500-
NORTHEAST SOUTH DAKOTA

CITY           SKY/WX    TMP DP  RH WIND       PRES   REMARKS
ABERDEEN       FOG       26  24  92 S12       30.01S VSB 1/2 WCI  16
WATERTOWN      CLOUDY    28  26  92 S13       30.01S FOG     WCI  17
SISSETON         N/A     29  28  96 S9        30.02S WCI  20
$$

SDZ017-020-022-023-036>040-048>070-201500-
SOUTHEAST SOUTH DAKOTA

CITY           SKY/WX    TMP DP  RH WIND       PRES   REMARKS
SIOUX FALLS    CLOUDY    31  29  92 S12       30.06S FOG     WCI  22
HURON          FOG       25  24  96 S7        30.03S VSB 3/4 WCI  17
CHAMBERLAIN    CLOUDY    13  11  91 SE6       29.99S FOG     WCI   4
MITCHELL       FOG       27  27 100 S8        30.05S VSB 1/2 WCI  19
YANKTON        CLOUDY    34  28  80 S8        30.07S WCI  27
$$

ABBREVIATIONS USED IN REMARKS
   TC - TEMPERATURE IN CELSIUS
  WCI - WIND CHILL INDEX
   HX - HEAT INDEX
  VSB - VISIBILITY




USA.gov is the U.S. government's official web portal to all federal, state and local government web resources and services.